This is the latest recevied weather packets stored in our database for station/object VR2R-13. If no packets are shown the sender has not sent any weather packets the latest 1 day(s).
| Time | Temp. | Humidity | Pressure | Rain* | Wind** | Luminosity | Snow |
|---|---|---|---|---|---|---|---|
| 1778035310 | 17.22° C | 98% | 914.9 hPa | 0 mm | 1.34 m/s, 90° | - | - |
| 1778035069 | 17.78° C | 98% | 914.9 hPa | 0 mm | 0.45 m/s, 95° | - | - |
| 1778034950 | 17.22° C | 98% | 914.9 hPa | 0 mm | 0 m/s | - | - |
| 1778034769 | 17.78° C | 98% | 914.8 hPa | 0 mm | 2.68 m/s, 62° | - | - |
| 1778034590 | 17.78° C | 98% | 914.8 hPa | 0 mm | 2.68 m/s, 86° | - | - |
| 1778034469 | 17.22° C | 98% | 914.8 hPa | 0 mm | 0 m/s | - | - |
| 1778034230 | 17.22° C | 98% | 914.8 hPa | 0 mm | 2.24 m/s, 88° | - | - |
| 1778034168 | 17.22° C | 98% | 914.8 hPa | 0 mm | 0.45 m/s, 75° | - | - |
| 1778033870 | 17.22° C | 98% | 914.9 hPa | 0 mm | 2.68 m/s, 82° | - | - |
| 1778033868 | 17.22° C | 98% | 914.9 hPa | 0 mm | 2.68 m/s, 78° | - | - |
| 1778033568 | 17.22° C | 98% | 914.8 hPa | 0 mm | 0.89 m/s, 75° | - | - |
| 1778033511 | 17.22° C | 98% | 914.8 hPa | 0 mm | 2.68 m/s, 76° | - | - |
| 1778032969 | 16.67° C | 98% | 914.8 hPa | 0 mm | 0 m/s | - | - |
| 1778032430 | 17.22° C | 98% | 914.9 hPa | 0 mm | 2.68 m/s, 77° | - | - |
| 1778032373 | 17.22° C | 98% | 914.9 hPa | 0 mm | 2.24 m/s, 60° | - | - |
| 1778032070 | 17.22° C | 98% | 914.9 hPa | 0 mm | 2.68 m/s, 60° | - | - |
| 1778032068 | 17.22° C | 98% | 914.8 hPa | 0 mm | 2.68 m/s, 65° | - | - |
| 1778031768 | 17.22° C | 98% | 914.9 hPa | 0 mm | 3.13 m/s, 80° | - | - |
| 1778031710 | 17.22° C | 98% | 914.8 hPa | 0 mm | 1.79 m/s, 72° | - | - |
| 1778031468 | 17.22° C | 98% | 914.8 hPa | 0 mm | 3.58 m/s, 78° | - | - |
| 1778031350 | 17.22° C | 98% | 914.8 hPa | 0 mm | 2.68 m/s, 90° | - | - |
| 1778031168 | 17.22° C | 97% | 914.9 hPa | 0 mm | 1.79 m/s, 48° | - | - |
| 1778030868 | 17.22° C | 98% | 914.9 hPa | 0 mm | 0.89 m/s, 53° | - | - |
| 1778030629 | 17.22° C | 98% | 914.9 hPa | 0 mm | 0.45 m/s, 81° | - | - |
| 1778030570 | 17.22° C | 98% | 914.9 hPa | 0 mm | 2.68 m/s, 72° | - | - |
* Rain latest hour (hover to see other rain measurements)
** Current wind speed in m/s (hover to see current wind gust speed)